UTMN 2 (RS27S) (57203 NORAD) Tracking and Keplerian Element Data

This shows tracking and keplerian element data for the satellite.

Feedback or suggestion? Click here.




ElementValue
Catalog57203
NameUTMN 2 (RS27S)
Epoch Orbit7133
Epoch Day286.89721881
Epoch Year2024
RAAN339.4428
Inclination97.6004
Eccentricity0.0013185
Argument of Perigee66.1016
Mean Anonmoly294.1595
Mean Motion15.13713178
Decay Rate0.00020067
L11 57203U 23091AP 24286.89721881 .00020067 00000+0 11135-2 0 9995
L22 57203 97.6004 339.4428 0013185 66.1016 294.1595 15.13713178 71332



Live tracking and technical data element details for UTMN 2 (RS27S) (NORAD 57203). UTMN 2 (RS27S) can be tracked NOW for your location showing map with azimuth and elevation plus other details from your city location.







IsCatalogInMostPopularTable: catalog: 57203, numindb: 37
Update: records affected: 1



GetName: 57203 UTMN 2 (RS27S)

Hit Count: updated at: Thu, 23 Jan 2025 16:56:21 GMT